Retour au catalogue

STARLINK-1845

ActifCommunicationsVLEO
NORAD 47135·PAYLOAD·🇺🇸 United States

Lancé Nov 25, 2020 depuis Cape Canaveral Space Force Station

Loading…

Prochains Passages (prochaines 24 heures)

TLE

FraisSource: CelesTrak SupGP

Époque: Sep 15, 2026, 01:20 UTC

1 47135C 20088P   26258.05604167  .01442800  00000+0  88496-3 0  2584
2 47135  53.0269  54.0334 0011730 295.9528 218.0714 16.16471214    15

Suivez STARLINK-1845 en temps réel avec AllMySat

Download on the App Store